Hourly Weather Dzierzkow

Today, 15 May, Saturday

Time Temperature Precipitation Wind Pressure Humidity
00:00 +7°C° 0 mm 2 mps 736 mmHg 92%
01:00 +7°C° 0 mm 2 mps 736 mmHg 92%
02:00 +7°C° 0 mm 2 mps 736 mmHg 92%
03:00 +6°C° 0 mm 2 mps 736 mmHg 92%
04:00 +7°C° 0 mm 1 mps 735 mmHg 92%
05:00 +9°C° 0 mm 1 mps 736 mmHg 88%
06:00 +11°C° 0 mm 1 mps 736 mmHg 84%
07:00 +13°C° 0 mm 1 mps 736 mmHg 80%
08:00 +14°C° 0.2 mm 2 mps 736 mmHg 73%
09:00 +16°C° 0.2 mm 2 mps 736 mmHg 67%
10:00 +17°C° 0.2 mm 3 mps 736 mmHg 61%
11:00 +17°C° 0.2 mm 2 mps 735 mmHg 59%
12:00 +18°C° 0.2 mm 2 mps 735 mmHg 57%
13:00 +18°C° 0.2 mm 2 mps 735 mmHg 54%
14:00 +17°C° 0.4 mm 2 mps 735 mmHg 62%
15:00 +16°C° 0.4 mm 2 mps 735 mmHg 69%
16:00 +14°C° 0.4 mm 3 mps 735 mmHg 76%
17:00 +14°C° 0.4 mm 2 mps 734 mmHg 81%
18:00 +13°C° 0.4 mm 2 mps 734 mmHg 86%
19:00 +12°C° 0.4 mm 2 mps 734 mmHg 90%
20:00 +10°C° 0.1 mm 2 mps 734 mmHg 91%
21:00 +10°C° 0.1 mm 2 mps 734 mmHg 92%
22:00 +9°C° 0.1 mm 2 mps 734 mmHg 92%
23:00 +8°C° 0 mm 2 mps 734 mmHg 92%

Tomorrow, 16 May, Sunday

Time Temperature Precipitation Wind Pressure Humidity
00:00 +8°C° 0 mm 2 mps 734 mmHg 91%
01:00 +7°C° 0 mm 2 mps 734 mmHg 90%
02:00 +7°C° 0 mm 2 mps 734 mmHg 91%
03:00 +8°C° 0 mm 1 mps 734 mmHg 91%
04:00 +8°C° 0 mm 1 mps 734 mmHg 92%
05:00 +9°C° 0.1 mm 1 mps 734 mmHg 92%
06:00 +10°C° 0.1 mm 1 mps 734 mmHg 91%
07:00 +11°C° 0.1 mm 1 mps 734 mmHg 90%
08:00 +12°C° 0 mm 2 mps 734 mmHg 82%
09:00 +13°C° 0 mm 2 mps 734 mmHg 74%
10:00 +14°C° 0 mm 2 mps 734 mmHg 66%
11:00 +15°C° 0.1 mm 2 mps 734 mmHg 64%
12:00 +15°C° 0.1 mm 2 mps 734 mmHg 62%
13:00 +16°C° 0.1 mm 2 mps 733 mmHg 59%
14:00 +16°C° 0.4 mm 2 mps 733 mmHg 61%
15:00 +16°C° 0.4 mm 2 mps 733 mmHg 63%
16:00 +16°C° 0.4 mm 2 mps 733 mmHg 66%
17:00 +15°C° 0.2 mm 2 mps 733 mmHg 70%
18:00 +14°C° 0.2 mm 1 mps 733 mmHg 75%
19:00 +13°C° 0.2 mm 1 mps 732 mmHg 80%
20:00 +12°C° 0 mm 1 mps 733 mmHg 82%
21:00 +10°C° 0 mm 2 mps 733 mmHg 85%
22:00 +9°C° 0 mm 2 mps 733 mmHg 88%
23:00 +9°C° 0.1 mm 2 mps 733 mmHg 88%

Day after tomorrow, 17 May, Monday

Time Temperature Precipitation Wind Pressure Humidity
00:00 +9°C° 0.1 mm 2 mps 733 mmHg 89%
01:00 +9°C° 0.1 mm 3 mps 733 mmHg 89%
02:00 +9°C° 0 mm 2 mps 733 mmHg 90%
03:00 +9°C° 0 mm 2 mps 733 mmHg 91%
04:00 +8°C° 0 mm 2 mps 733 mmHg 91%
05:00 +9°C° 0 mm 2 mps 733 mmHg 89%
06:00 +10°C° 0 mm 2 mps 733 mmHg 87%
07:00 +12°C° 0 mm 2 mps 734 mmHg 85%
08:00 +12°C° 0.2 mm 3 mps 733 mmHg 80%
09:00 +13°C° 0.2 mm 3 mps 733 mmHg 76%
10:00 +14°C° 0.2 mm 3 mps 733 mmHg 71%
11:00 +13°C° 0.5 mm 4 mps 734 mmHg 73%
12:00 +13°C° 0.5 mm 5 mps 734 mmHg 75%
13:00 +13°C° 0.5 mm 6 mps 734 mmHg 77%
14:00 +13°C° 0.2 mm 5 mps 734 mmHg 76%
15:00 +13°C° 0.2 mm 5 mps 734 mmHg 74%
16:00 +13°C° 0.2 mm 5 mps 734 mmHg 73%
17:00 +12°C° 0.1 mm 5 mps 734 mmHg 77%
18:00 +11°C° 0.1 mm 4 mps 734 mmHg 81%
19:00 +10°C° 0.1 mm 3 mps 734 mmHg 85%
20:00 +9°C° 0 mm 3 mps 735 mmHg 87%
21:00 +8°C° 0 mm 3 mps 735 mmHg 89%
22:00 +7°C° 0 mm 3 mps 735 mmHg 91%
23:00 +7°C° 0 mm 3 mps 735 mmHg 91%

18 May, Tuesday

Time Temperature Precipitation Wind Pressure Humidity
00:00 +7°C° 0 mm 3 mps 735 mmHg 92%
01:00 +7°C° 0 mm 3 mps 735 mmHg 92%
02:00 +5°C° 0 mm 3 mps 735 mmHg 92%
03:00 +5°C° 0 mm 3 mps 735 mmHg 92%
04:00 +5°C° 0 mm 3 mps 735 mmHg 92%
05:00 +7°C° 0 mm 3 mps 735 mmHg 89%
06:00 +8°C° 0 mm 4 mps 735 mmHg 85%
07:00 +10°C° 0 mm 4 mps 735 mmHg 82%
08:00 +11°C° 0.1 mm 4 mps 736 mmHg 79%
09:00 +12°C° 0.1 mm 5 mps 736 mmHg 76%
10:00 +12°C° 0.1 mm 5 mps 736 mmHg 73%
11:00 +13°C° 0.2 mm 5 mps 736 mmHg 73%
12:00 +13°C° 0.2 mm 5 mps 736 mmHg 73%
13:00 +13°C° 0.2 mm 5 mps 736 mmHg 73%
14:00 +13°C° 0.2 mm 5 mps 736 mmHg 72%
15:00 +13°C° 0.2 mm 5 mps 736 mmHg 72%
16:00 +13°C° 0.2 mm 5 mps 736 mmHg 72%
17:00 +12°C° 0.3 mm 4 mps 737 mmHg 77%
18:00 +11°C° 0.3 mm 4 mps 737 mmHg 82%
19:00 +10°C° 0.3 mm 4 mps 737 mmHg 87%
20:00 +8°C° 0 mm 4 mps 737 mmHg 88%
21:00 +8°C° 0 mm 4 mps 738 mmHg 89%
22:00 +7°C° 0 mm 4 mps 738 mmHg 89%
23:00 +7°C° 0 mm 4 mps 738 mmHg 89%

19 May, Wednesday

Time Temperature Precipitation Wind Pressure Humidity
00:00 +7°C° 0 mm 4 mps 738 mmHg 89%
01:00 +7°C° 0 mm 4 mps 738 mmHg 89%
02:00 +7°C° 0 mm 4 mps 738 mmHg 90%
03:00 +7°C° 0 mm 4 mps 738 mmHg 90%
04:00 +7°C° 0 mm 4 mps 739 mmHg 91%
05:00 +8°C° 0 mm 4 mps 739 mmHg 87%
06:00 +8°C° 0 mm 5 mps 739 mmHg 84%
07:00 +9°C° 0 mm 5 mps 740 mmHg 81%
08:00 +10°C° 0.1 mm 5 mps 740 mmHg 76%
09:00 +10°C° 0.1 mm 6 mps 740 mmHg 70%
10:00 +11°C° 0.1 mm 6 mps 740 mmHg 64%
11:00 +13°C° 0.1 mm 6 mps 740 mmHg 61%
12:00 +13°C° 0.1 mm 5 mps 740 mmHg 59%
13:00 +14°C° 0.1 mm 5 mps 740 mmHg 56%
14:00 +13°C° 0.2 mm 5 mps 740 mmHg 60%
15:00 +13°C° 0.2 mm 5 mps 740 mmHg 64%
16:00 +13°C° 0.2 mm 5 mps 740 mmHg 68%
17:00 +12°C° 0.2 mm 5 mps 740 mmHg 73%
18:00 +11°C° 0.2 mm 4 mps 740 mmHg 78%
19:00 +10°C° 0.2 mm 3 mps 740 mmHg 84%
20:00 +9°C° 0 mm 3 mps 741 mmHg 86%
21:00 +8°C° 0 mm 3 mps 741 mmHg 88%
22:00 +7°C° 0 mm 3 mps 741 mmHg 90%
23:00 +7°C° 0 mm 3 mps 741 mmHg 90%

20 May, Thursday

Time Temperature Precipitation Wind Pressure Humidity
00:00 +6°C° 0 mm 4 mps 741 mmHg 90%
01:00 +5°C° 0 mm 4 mps 741 mmHg 91%
02:00 +5°C° 0 mm 4 mps 742 mmHg 91%
03:00 +5°C° 0 mm 4 mps 742 mmHg 92%
04:00 +5°C° 0 mm 4 mps 742 mmHg 92%
05:00 +6°C° 0 mm 5 mps 742 mmHg 90%
06:00 +7°C° 0 mm 5 mps 743 mmHg 88%
07:00 +7°C° 0 mm 5 mps 743 mmHg 86%
08:00 +8°C° 0.1 mm 5 mps 743 mmHg 85%
09:00 +8°C° 0.1 mm 5 mps 744 mmHg 84%
10:00 +9°C° 0.1 mm 5 mps 744 mmHg 83%
11:00 +9°C° 0.2 mm 5 mps 743 mmHg 79%
12:00 +10°C° 0.2 mm 5 mps 743 mmHg 76%
13:00 +12°C° 0.2 mm 5 mps 743 mmHg 72%
14:00 +12°C° 0.3 mm 5 mps 743 mmHg 73%
15:00 +11°C° 0.3 mm 6 mps 743 mmHg 74%
16:00 +11°C° 0.3 mm 6 mps 743 mmHg 75%
17:00 +10°C° 0.1 mm 5 mps 743 mmHg 78%
18:00 +11°C° 0.1 mm 3 mps 743 mmHg 81%
19:00 +10°C° 0.1 mm 2 mps 743 mmHg 84%
20:00 +9°C° 0 mm 2 mps 743 mmHg 86%
21:00 +8°C° 0 mm 2 mps 743 mmHg 87%
22:00 +8°C° 0 mm 2 mps 743 mmHg 88%
23:00 +7°C° 0 mm 2 mps 743 mmHg 88%
Show more

We Need Your Consent

Meteoprog and our Service Providers may store and access personal data such as cookies, device identifiers or other similar technologies on your device and process such data to personalise content and ads, as well as provide social media features and to analyse the traffic.

  • Store and/or access information on your device

    Cookies, device identifiers or other information can be stored or accessed on your device for the purposes indicated above.

  • Personalised ads and content, ad and content measurement, audience insights, and products development

    Ads and content can be personalised based on a profile. More data can be added to better personalise ads and content. Ad and content performance can be measured. Insights about the audience who saw the ads and content can be derived. Such data can be used to develop or improve user’s experience, systems and software.

By clicking ‘I Agree’ you will allow the use of indicated cookies, device identifiers, web beacons or other similar technologies. Your settings can be changed in the browser on your device.

For certain purposes, legitimate interests may be relied on, rather than consent. You can read more about this in our Privacy and Cookie Policy.